Showing default

3CAT-5/A (TYVAK-0161), 46292

Orbit data source: Space-Track

3CAT-5/A (TYVAK-0161), 46292 is a payload satellite owned by UPC (ES) in SSO that was launched on Thu, 03 Sep 2020 UTC via a VEGA launch vehicle from the French Guiana (FRGUI). Payload-class satellites include a variety of spacecraft equipped with specific instruments for various scientific and technological missions. These include communications satellites like Starlink; space stations such as the ISS; scientific satellites like the Hubble; Earth observation satellites from companies like Planet Labs, Umbra, and HawkEye 360; GPS; miniature CubeSats for education and research; and military/defense satellites.

Loading next visibility...
Identifier
46292, 2020-061W
Orbit
SSO
Country
Flag of ESES / SPN
Related business
Manufacturer
UPC
Mission
Non-operational Amateur Technology
Bus & Motor
CUBESAT 6U, Unknown motor
Mass
~10 kg wet, ~10 kg dry
Launch date (UTC)
2020-09-03 (5 years ago)
Launch vehicle
VEGA
Launch site
French Guiana (FRGUI)
Object type
Payload
Rocket body
Debris
Shape & HBR
Box, Unknown HBR
Radar Cross Section
0.080 m², Medium (>0.1 m² and < 1m²)

Expand to show TLE details & history
Last TLE update: 11 hours ago

TLE from 11 hours ago
0 3CAT-5/A (TYVAK-0161)
1 46292U 20061W   26037.71512072  .00020105  00000-0  47724-3 0  9990
2 46292  97.2597 101.0439 0001275 187.8457 172.2770 15.41733469300896
Epoch: 2026-02-06T17:09Z
TLE epoch observation values (Epoch: 2026-02-06T17:09:46.430Z)
Latitude
-0.00007°
Longitude
66.75143°
Altitude
444.979 km
Speed
7.645 km/s
True Right ascension
06h 44m 10s
True Declination
0° 00' 00"
Sunlit
Object was in full shadow at epoch
Visualization orbit readout
Latitude
Unknown
Longitude
Unknown
Altitude
Unknown
Speed
Unknown
Apparent Right ascension
Unknown
Apparent Declination
Unknown
Sunlit
N/A
Visualization observer readout
Local Sidereal Time
06:15:18
Azimuth
Unknown
Elevation
Unknown
Doppler factor
Unknown
Orbital elements
Apogee altitude
438.793 km
Perigee altitude
437.055 km
Semi-major axis
6,816.061 km
Eccentricity
0.00013
Inclination
97.2597°
RAAN
101.0439°
Arg. of periapsis
187.8457°
True anomaly
172.27896°
Mean anomaly
172.277°
Eccentric anomaly
172.27798°
Mean motion
3.85694 °/min
Orbital period
93.34 mins
BSTAR
0.00047724
Loading maneuver chart data...
Computing Atmospheric mass density...

Documentation

Showing up to 5 results
|